User: anonymous
Location: Unspecified
(0.0000°N, 0.0000°E)
Time: 17:33:26
(UTC+00:00)
Language:

STSS ATRR (USA 205) - Orbit

View from above orbital plane
View from above orbital plane
View from above satellite
View from above satellite

Ground track
Ground track

The orbit data is extracted from the following two-line orbital elements,

1 34903U 09023A   14206.93864607 0.00000050  00000-0  30131-4 0    09
2 34903  98.9300 303.7611 0008000 327.0715  32.9283 14.06717231    03
Epoch (UTC): 25 July 2014 22:31:39
Eccentricity: 0.0008000
inclination: 98.9300°
perigee height: 865 km
apogee height: 876 km
right ascension of ascending node: 303.7611°
argument of perigee: 327.0715°
revolutions per day: 14.06717231
mean anomaly at epoch: 32.9283°
orbit number at epoch: 0

The dashed part of the orbit path shows where the satellite is in the earth's shadow,  

DLR